Fort Lauderdale Hollywood International Airport
KFLL : now visible

Airfield :











YOU CAN JOIN US ON...

 
LOGIN :

Register | Disclaimer

   EN    FR    IT 

 









Legend :    VFR   Marginal VFR   IFR   Intensive IFR   Very Intensive IFR
Visi :
Ceiling :
>= 8 km
>= 3000ft
5 to 8 km
1000 to 3000 ft
1500m to 5 km
500 to 1000 ft
800 to 1500m
200 to 500 ft
< 800m
< 200 ft
Symbols :   Thunderstorms  Fog  Heavy snow  Heavy precipitations  Wind > 20 kt







- Airport Elevation : 9 ft
- IATA code : FLL


KFLL - Fort Lauderdale Hollywood International

CURRENT METAR :
  • 250753Z 06008KT 10SM SCT034 24/18 A3003 RMK AO2 SLP169 T02440178

EXPIRED METARs :
  • 250653Z 06010KT 10SM FEW034 24/18 A3005 RMK AO2 SLP175 T02440178
  • 250553Z 07010KT 10SM FEW033 25/17 A3007 RMK AO2 SLP181 T02500172 10256 20244 58006

TAF KFLL
Valid from the 25 at 06:00 until the 26 at 12:00 UTC


250539Z 2506/2612 09011KT P6SM SCT035
FM251500 08017G27KT P6SM SCT030 SCT060
FM260300 10013KT P6SM FEW030
KZMA FIR / North America



MET'MAP, your aeronautical weather chart ! - Copyright ORBIFLY December 2007 - Disclaimer

ORBIFLY MET'MAP TEAM :

Programming & Development : Alexandra Zaïnal
Concept & Development : Baudouin d'Aumeries
Co-Development & Prog : Marc-Olivier Méhu
Technical & hardware support : Manuel Goepfert

Contact : metmap@orbifly.com




SOURCES & CREDITS :

   NOAA       Earth
Advisory